EW9318 Weather Reports


time (UTC)temp
F
wind
direction
speed
knots
gust
knots
rain 1hr
in
rain 24hr
in
rain mn
in
humidity
%
barometer
mb
20260509093517 49 178 2.6 5.2 0.00 0.00 0.00 89 1002.5
20260509093016 49 192 0.9 5.2 0.00 0.00 0.00 89 1002.5
20260509092516 49 172 1.7 5.2 0.00 0.00 0.00 89 1002.5
20260509092036 49 166 1.7 7.8 0.00 0.00 0.00 89 1002.5
20260509091516 49 168 3.5 7.8 0.00 0.00 0.00 89 1002.4
20260509091016 49 165 2.6 6.1 0.00 0.00 0.00 89 1002.6
20260509090517 49 172 1.7 6.1 0.00 0.00 0.00 89 1002.6
20260509090017 49 173 2.6 5.2 0.00 0.00 0.00 89 1002.7
20260509085556 49 159 1.7 6.1 0.00 0.00 0.00 89 1002.6
20260509085016 49 166 2.6 6.1 0.00 0.00 0.00 89 1002.7
20260509084516 49 171 2.6 7.8 0.00 0.00 0.00 89 1002.7
20260509084016 49 173 2.6 7.8 0.00 0.00 0.00 89 1002.8
20260509083516 48 161 2.6 8.7 0.00 0.00 0.00 89 1002.8
20260509083016 48 157 2.6 8.7 0.00 0.00 0.00 89 1002.8
20260509082516 48 166 1.7 6.1 0.00 0.00 0.00 89 1002.8
20260509082016 48 171 1.7 5.2 0.00 0.00 0.00 88 1002.9
20260509081516 48 161 1.7 5.2 0.00 0.00 0.00 88 1002.9
20260509081016 48 154 1.7 7.0 0.00 0.00 0.00 88 1003.0
20260509080516 48 153 1.7 7.0 0.00 0.00 0.00 88 1003.1
20260509080016 48 150 1.7 4.3 0.00 0.00 0.00 88 1003.1
20260509075516 48 159 1.7 5.2 0.00 0.00 0.00 88 1003.2
20260509075016 48 160 1.7 6.1 0.00 0.00 0.00 88 1003.2
20260509074517 48 168 1.7 6.1 0.00 0.00 0.00 88 1003.3
20260509074016 48 149 2.6 5.2 0.00 0.00 0.00 88 1003.3
20260509073516 47 143 1.7 5.2 0.00 0.00 0.00 87 1003.3
20260509073016 47 155 1.7 5.2 0.00 0.00 0.00 86 1003.4
20260509072516 47 168 0.9 3.5 0.00 0.00 0.00 85 1003.5
20260509072016 47 159 0.9 3.5 0.00 0.00 0.00 85 1003.6
20260509071516 47 147 0.9 3.5 0.00 0.00 0.00 85 1003.6
20260509071016 47 154 0.9 3.5 0.00 0.00 0.00 85 1003.6
20260509070517 47 193 0.0 3.5 0.00 0.00 0.00 84 1003.7
20260509070015 47 157 0.0 3.5 0.00 0.00 0.00 83 1003.7
20260509065516 47 143 0.9 4.3 0.00 0.00 0.00 83 1003.6
20260509065016 46 141 1.7 4.3 0.00 0.00 0.00 81 1003.6
20260509064516 46 154 0.0 2.6 0.00 0.00 0.00 79 1003.8
20260509064016 46 157 0.0 3.5 0.00 0.00 0.00 78 1003.9
20260509063536 46 148 0.0 3.5 0.00 0.00 0.00 78 1003.9
20260509063036 46 142 0.9 2.6 0.00 0.00 0.00 76 1003.9
20260509062536 46 140 0.9 4.3 0.00 0.00 0.00 77 1004.0
20260509062016 46 139 1.7 4.3 0.00 0.00 0.00 75 1004.0
20260509061515 46 132 1.7 4.3 0.00 0.00 0.00 74 1004.0
20260509061016 45 127 1.7 4.3 0.00 0.00 0.00 73 1004.0
20260509060515 45 135 1.7 3.5 0.00 0.00 0.00 73 1004.0
20260509060015 45 132 1.7 3.5 0.00 0.00 0.00 72 1004.2
20260509055516 44 149 1.7 3.5 0.00 0.00 0.00 71 1004.2
20260509055035 44 144 0.9 2.6 0.00 0.00 0.00 71 1004.2
20260509054516 44 180 0.0 1.7 0.00 0.00 0.00 71 1004.3
20260509054015 43 178 0.0 4.3 0.00 0.00 0.00 71 1004.4
20260509053516 43 175 1.7 4.3 0.00 0.00 0.00 71 1004.3
20260509053017 43 157 0.9 4.3 0.00 0.00 0.00 71 1004.3
20260509052517 42 144 0.9 3.5 0.00 0.00 0.00 71 1004.2
20260509052016 42 126 1.7 3.5 0.00 0.00 0.00 72 1004.2
20260509051515 42 120 1.7 3.5 0.00 0.00 0.00 75 1004.1
20260509051016 42 121 1.7 2.6 0.00 0.00 0.00 75 1004.2
20260509050537 42 125 1.7 2.6 0.00 0.00 0.00 74 1004.3
20260509050016 42 130 0.0 1.7 0.00 0.00 0.00 72 1004.3
20260509045517 42 0.0 0.9 0.00 0.00 0.00 72 1004.3
20260509045035 42 130 0.0 2.6 0.00 0.00 0.00 71 1004.3
20260509044515 43 132 0.0 3.5 0.00 0.00 0.00 71 1004.3
20260509044015 42 116 1.7 3.5 0.00 0.00 0.00 70 1004.2
20260509043537 42 119 1.7 3.5 0.00 0.00 0.00 70 1004.3
20260509043015 42 130 0.9 2.6 0.00 0.00 0.00 69 1004.4
20260509042515 43 129 0.9 1.7 0.00 0.00 0.00 68 1004.5
20260509042015 43 120 0.9 2.6 0.00 0.00 0.00 68 1004.5
20260509041536 43 117 0.9 2.6 0.00 0.00 0.00 68 1004.5
20260509041015 43 114 0.9 2.6 0.00 0.00 0.00 67 1004.6
20260509040515 43 112 0.9 2.6 0.00 0.00 0.00 67 1004.6
20260509040015 43 113 1.7 2.6 0.00 0.00 0.00 66 1004.6
20260509035536 44 119 1.7 2.6 0.00 0.00 0.00 66 1004.6
20260509035016 44 122 0.9 2.6 0.00 0.00 0.00 66 1004.7
20260509034517 44 122 0.9 2.6 0.00 0.00 0.00 64 1004.7
20260509034016 44 122 0.9 2.6 0.00 0.00 0.00 64 1004.8
20260509033517 44 122 0.9 2.6 0.00 0.00 0.00 64 1004.7
20260509033016 44 122 1.7 2.6 0.00 0.00 0.00 64 1004.8
20260509032516 44 122 1.7 2.6 0.00 0.00 0.00 63 1004.8
20260509032016 45 125 1.7 2.6 0.00 0.00 0.00 63 1004.8
20260509031515 45 125 1.7 2.6 0.00 0.00 0.00 63 1004.9
20260509031017 45 126 0.9 2.6 0.00 0.00 0.00 61 1005.0
20260509030536 46 125 0.0 1.7 0.00 0.00 0.00 58 1005.1
20260509030016 46 126 0.0 0.9 0.00 0.00 0.00 58 1005.2
20260509025516 46 126 0.0 0.9 0.00 0.00 0.00 58 1005.2
20260509025016 46 125 0.0 1.7 0.00 0.00 0.00 59 1005.2
20260509024517 46 125 0.9 1.7 0.00 0.00 0.00 59 1005.2
20260509024016 46 125 0.9 2.6 0.00 0.00 0.00 58 1005.2
20260509023516 47 125 1.7 3.5 0.00 0.00 0.00 57 1005.2
20260509023016 47 127 1.7 3.5 0.00 0.00 0.00 57 1005.3
20260509022516 47 131 1.7 3.5 0.00 0.00 0.00 56 1005.3
20260509022015 48 130 1.7 3.5 0.00 0.00 0.00 55 1005.3
20260509021536 48 131 0.9 2.6 0.00 0.00 0.00 52 1005.4
20260509021016 48 132 1.7 2.6 0.00 0.00 0.00 52 1005.4
20260509020516 49 137 1.7 2.6 0.00 0.00 0.00 53 1005.4
20260509020015 49 138 1.7 2.6 0.00 0.00 0.00 51 1005.3
20260509015517 49 138 0.9 1.7 0.00 0.00 0.00 50 1005.3
20260509015015 50 137 0.0 1.7 0.00 0.00 0.00 49 1005.3
20260509014517 50 138 0.9 2.6 0.00 0.00 0.00 49 1005.3
20260509014015 51 138 0.9 2.6 0.00 0.00 0.00 49 1005.2
20260509013517 51 138 0.9 1.7 0.00 0.00 0.00 47 1005.2
20260509013016 52 138 0.9 2.6 0.00 0.00 0.00 46 1005.1
20260509012516 52 137 1.7 2.6 0.00 0.00 0.00 42 1005.2
20260509012016 53 137 1.7 2.6 0.00 0.00 0.00 44 1005.1
20260509011535 53 237 0.9 2.6 0.00 0.00 0.00 43 1005.1
20260509011015 54 266 0.9 2.6 0.00 0.00 0.00 40 1005.1
20260509010515 55 266 0.9 2.6 0.00 0.00 0.00 39 1005.1
20260509010016 56 266 0.9 1.7 0.00 0.00 0.00 37 1005.2
20260509005516 57 266 0.9 1.7 0.00 0.00 0.00 35 1005.1
20260509005015 57 266 0.9 1.7 0.00 0.00 0.00 33 1005.1
20260509004517 58 266 0.9 1.7 0.00 0.00 0.00 32 1005.1
20260509004017 58 266 0.0 1.7 0.00 0.00 0.00 31 1005.1
20260509003515 59 0.0 1.7 0.00 0.00 0.00 33 1005.1
20260509003015 59 277 0.0 1.7 0.00 0.00 0.00 33 1005.1
20260509002515 60 306 0.0 2.6 0.00 0.00 0.00 30 1005.1
20260509002015 60 304 0.9 5.2 0.00 0.00 0.00 26 1005.2
20260509001515 60 264 1.7 5.2 0.00 0.00 0.00 25 1005.1
20260509001015 60 262 0.9 3.5 0.00 0.00 0.00 25 1005.2
20260509000515 60 266 1.7 5.2 0.00 0.00 0.00 26 1005.2
20260509000015 60 296 2.6 6.1 0.00 0.00 0.00 25 1005.2
20260508235516 60 294 3.5 7.0 0.00 0.00 0.00 24 1005.2
20260508235015 60 300 3.5 7.0 0.00 0.00 0.00 24 1005.3
20260508234515 60 299 3.5 8.7 0.00 0.00 0.00 24 1005.4
20260508234036 60 301 6.1 9.6 0.00 0.00 0.00 24 1005.5
20260508233515 60 309 5.2 9.6 0.00 0.00 0.00 24 1005.5
20260508233036 61 297 5.2 8.7 0.00 0.00 0.00 24 1005.5
20260508232537 61 295 4.3 10.4 0.00 0.00 0.00 24 1005.5
20260508232015 61 303 7.0 10.4 0.00 0.00 0.00 23 1005.4
20260508231535 61 299 6.1 10.4 0.00 0.00 0.00 24 1005.5
20260508231015 61 308 6.1 11.3 0.00 0.00 0.00 24 1005.4
20260508230515 61 299 7.0 11.3 0.00 0.00 0.00 23 1005.4
20260508230015 61 312 7.0 13.9 0.00 0.00 0.00 24 1005.5
20260508225515 61 316 7.0 13.9 0.00 0.00 0.00 22 1005.5
20260508225015 62 299 6.1 9.6 0.00 0.00 0.00 23 1005.4
20260508224515 62 313 6.1 12.2 0.00 0.00 0.00 22 1005.4
20260508224015 61 307 7.8 12.2 0.00 0.00 0.00 23 1005.5
20260508223515 62 287 7.0 12.2 0.00 0.00 0.00 21 1005.5
20260508223015 61 306 6.1 12.2 0.00 0.00 0.00 21 1005.5
20260508222516 62 310 7.8 12.2 0.00 0.00 0.00 22 1005.5
20260508222015 62 298 6.1 13.9 0.00 0.00 0.00 21 1005.6
20260508221515 61 321 8.7 13.9 0.00 0.00 0.00 22 1005.6
20260508221015 62 319 8.7 13.9 0.00 0.00 0.00 21 1005.6
20260508220516 62 303 7.8 12.2 0.00 0.00 0.00 23 1005.7
20260508220015 62 298 7.0 13.0 0.00 0.00 0.00 22 1005.6
20260508215516 62 304 7.8 13.0 0.00 0.00 0.00 21 1005.6
20260508215015 62 303 7.0 13.0 0.00 0.00 0.00 23 1005.7
20260508214515 62 301 8.7 13.9 0.00 0.00 0.00 23 1005.6
20260508214015 62 301 7.8 13.9 0.00 0.00 0.00 22 1005.6
20260508213515 62 324 7.8 12.2 0.00 0.00 0.00 24 1005.6
20260508213016 61 327 8.7 13.0 0.00 0.00 0.00 24 1005.6
20260508212516 61 298 7.0 15.6 0.00 0.00 0.00 21 1005.6
20260508212015 61 304 8.7 15.6 0.00 0.00 0.00 22 1005.8
20260508211515 61 303 9.6 14.8 0.00 0.00 0.00 23 1005.8
20260508211015 62 297 8.7 14.8 0.00 0.00 0.00 23 1005.8
20260508210515 62 263 7.0 13.9 0.00 0.00 0.00 24 1005.8
20260508210015 62 272 9.6 13.9 0.00 0.00 0.00 22 1005.8
20260508205515 62 274 6.1 13.0 0.00 0.00 0.00 23 1005.9
20260508205015 62 263 7.8 13.0 0.00 0.00 0.00 23 1005.9
20260508204516 62 247 8.7 13.9 0.00 0.00 0.00 24 1005.9
20260508204015 62 295 7.0 14.8 0.00 0.00 0.00 23 1006.1
20260508203515 62 288 9.6 14.8 0.00 0.00 0.00 23 1006.2
20260508203015 62 252 8.7 13.9 0.00 0.00 0.00 23 1006.3
20260508202515 61 240 8.7 15.6 0.00 0.00 0.00 23 1006.2
20260508202015 61 274 10.4 15.6 0.00 0.00 0.00 22 1006.4
20260508201515 61 257 7.8 14.8 0.00 0.00 0.00 25 1006.4
20260508201015 61 262 9.6 14.8 0.00 0.00 0.00 21 1006.5
20260508200538 62 270 9.6 14.8 0.00 0.00 0.00 24 1006.6
20260508200037 62 268 9.6 14.8 0.00 0.00 0.00 23 1006.6
20260508195517 62 271 7.8 13.0 0.00 0.00 0.00 25 1006.6
20260508195017 62 245 8.7 15.6 0.00 0.00 0.00 27 1006.7
20260508194517 61 250 8.7 16.5 0.00 0.00 0.00 24 1006.7
20260508194017 62 243 9.6 16.5 0.00 0.00 0.00 25 1006.8
20260508193518 62 230 9.6 14.8 0.00 0.00 0.00 25 1006.8
20260508193018 62 248 7.8 14.8 0.00 0.00 0.00 24 1006.8
20260508192517 62 269 7.8 14.8 0.00 0.00 0.00 25 1006.8
20260508192017 62 242 8.7 14.8 0.00 0.00 0.00 26 1006.8
20260508191518 62 271 7.8 13.0 0.00 0.00 0.00 27 1007.0
20260508191036 62 229 6.1 12.2 0.00 0.00 0.00 27 1007.0
20260508190517 61 269 7.0 13.9 0.00 0.00 0.00 25 1007.1
20260508190017 61 255 7.0 13.9 0.00 0.00 0.00 26 1007.1
20260508185517 62 261 8.7 14.8 0.00 0.00 0.00 25 1007.2
20260508185017 62 258 8.7 14.8 0.00 0.00 0.00 27 1007.2
20260508184518 61 284 7.8 14.8 0.00 0.00 0.00 24 1007.2
20260508184037 61 256 8.7 14.8 0.00 0.00 0.00 28 1007.2
20260508183517 61 285 5.2 16.5 0.00 0.00 0.00 26 1007.3
20260508183017 61 261 9.6 17.4 0.00 0.00 0.00 24 1007.4
20260508182517 61 228 8.7 17.4 0.00 0.00 0.00 27 1007.3
20260508182017 61 244 9.6 18.2 0.00 0.00 0.00 26 1007.4
20260508181517 61 244 9.6 18.2 0.00 0.00 0.00 28 1007.5
20260508181017 61 253 9.6 15.6 0.00 0.00 0.00 26 1007.6
20260508180515 61 262 8.7 15.6 0.00 0.00 0.00 25 1007.6
20260508180038 61 268 7.8 15.6 0.00 0.00 0.00 25 1007.6
20260508175517 61 285 8.7 16.5 0.00 0.00 0.00 25 1007.7
20260508175017 61 309 9.6 16.5 0.00 0.00 0.00 26 1007.7
20260508174517 61 278 7.0 13.0 0.00 0.00 0.00 28 1007.8
20260508174017 61 279 7.8 13.0 0.00 0.00 0.00 27 1008.0
20260508173517 61 252 6.1 14.8 0.00 0.00 0.00 27 1008.0
20260508173016 60 271 7.8 14.8 0.00 0.00 0.00 24 1008.1
20260508172517 60 296 7.8 13.0 0.00 0.00 0.00 27 1008.1
20260508172018 60 281 7.0 11.3 0.00 0.00 0.00 30 1008.1
20260508171517 60 281 5.2 10.4 0.00 0.00 0.00 27 1008.2
20260508171017 60 297 3.5 13.0 0.00 0.00 0.00 31 1008.3
20260508170517 61 276 7.0 13.0 0.00 0.00 0.00 31 1008.4
20260508170018 61 203 2.6 7.0 0.00 0.00 0.00 32 1008.5
20260508165516 60 103 1.7 9.6 0.00 0.00 0.00 33 1008.5
20260508165017 60 171 3.5 11.3 0.00 0.00 0.00 35 1008.7
20260508164516 60 216 5.2 11.3 0.00 0.00 0.00 35 1008.7
20260508164016 59 260 2.6 11.3 0.00 0.00 0.00 36 1008.8
20260508163517 59 287 1.7 7.8 0.00 0.00 0.00 35 1008.9
20260508163018 58 332 1.7 9.6 0.00 0.00 0.00 36 1009.1
20260508162536 58 315 4.3 9.6 0.00 0.00 0.00 38 1009.0
20260508162016 58 323 1.7 8.7 0.00 0.00 0.00 40 1009.1
20260508161536 58 310 4.3 8.7 0.00 0.00 0.00 38 1009.2
20260508161017 58 46 0.9 3.5 0.00 0.00 0.00 40 1009.2
20260508160516 57 13 1.7 4.3 0.00 0.00 0.00 42 1009.3
20260508160016 57 333 1.7 4.3 0.00 0.00 0.00 40 1009.3
20260508155516 57 10 1.7 4.3 0.00 0.00 0.00 44 1009.4
20260508155036 57 267 1.7 4.3 0.00 0.00 0.00 46 1009.3
20260508154516 56 260 1.7 10.4 0.00 0.00 0.00 43 1009.4
20260508154017 56 236 6.1 10.4 0.00 0.00 0.00 42 1009.3
20260508153536 57 244 3.5 8.7 0.00 0.00 0.00 43 1009.2
20260508153016 57 237 3.5 7.8 0.00 0.00 0.00 42 1009.2
20260508152558 57 207 2.6 7.8 0.00 0.00 0.00 48 1009.3
20260508152036 56 4 3.5 8.7 0.00 0.00 0.00 46 1009.3
20260508151517 56 347 3.5 8.7 0.00 0.00 0.00 46 1009.4
20260508151016 56 190 1.7 7.8 0.00 0.00 0.00 47 1009.5
20260508150518 56 259 3.5 7.8 0.00 0.00 0.00 44 1009.4
20260508150016 56 324 1.7 6.1 0.00 0.00 0.00 46 1009.6
20260508145516 56 245 2.6 6.1 0.00 0.00 0.00 46 1009.7
20260508145016 56 171 2.6 6.1 0.00 0.00 0.00 50 1009.7
20260508144516 56 235 0.9 4.3 0.00 0.00 0.00 53 1009.8
20260508144037 55 144 0.9 4.3 0.00 0.00 0.00 54 1009.9
20260508143516 55 200 1.7 4.3 0.00 0.00 0.00 53 1009.9
20260508143016 55 318 0.0 1.7 0.00 0.00 0.00 57 1009.9
20260508142516 54 343 0.0 1.7 0.00 0.00 0.00 61 1009.8
20260508142016 54 5 0.0 1.7 0.00 0.00 0.00 61 1009.9
20260508141516 54 331 0.0 1.7 0.00 0.00 0.00 65 1009.9
20260508141038 53 159 0.0 1.7 0.00 0.00 0.00 68 1010.0
20260508140518 52 254 0.0 2.6 0.00 0.00 0.00 71 1010.1
20260508140036 52 259 0.0 2.6 0.00 0.00 0.00 74 1010.1
20260508135516 52 0.0 2.6 0.00 0.00 0.00 76 1010.3
20260508135016 51 69 0.0 2.6 0.00 0.00 0.00 79 1010.3
20260508134516 51 128 0.0 1.7 0.00 0.00 0.00 81 1010.3
20260508134038 50 187 0.0 1.7 0.00 0.00 0.00 83 1010.2
20260508133516 49 210 0.0 3.5 0.00 0.00 0.00 84 1010.2
20260508133016 49 174 0.9 4.3 0.00 0.00 0.00 88 1010.1
20260508132516 48 160 1.7 4.3 0.00 0.00 0.00 88 1010.2
20260508132016 47 169 0.9 4.3 0.00 0.00 0.00 90 1010.3
20260508131517 47 185 0.9 3.5 0.00 0.00 0.00 91 1010.4
20260508131016 46 194 0.9 2.6 0.00 0.00 0.00 92 1010.5
20260508130518 45 190 0.0 1.7 0.00 0.00 0.00 93 1010.5
20260508130036 44 175 0.0 2.6 0.00 0.00 0.00 93 1010.5
20260508125517 44 199 0.9 2.6 0.00 0.00 0.00 93 1010.4
20260508125017 43 216 0.9 2.6 0.00 0.00 0.00 93 1010.5
20260508124536 43 214 0.0 2.6 0.00 0.00 0.00 94 1010.5
20260508124017 43 185 0.9 2.6 0.00 0.00 0.00 94 1010.6
20260508123517 42 184 0.0 2.6 0.00 0.00 0.00 94 1010.5
20260508123016 41 182 0.0 2.6 0.00 0.00 0.00 94 1010.4
20260508122516 41 192 0.0 2.6 0.00 0.00 0.00 94 1010.3
20260508122016 40 179 0.0 2.6 0.00 0.00 0.00 94 1010.2
20260508121536 40 193 0.9 2.6 0.00 0.00 0.00 94 1010.2
20260508121016 39 196 0.0 2.6 0.00 0.00 0.00 94 1010.2
20260508120516 38 0.0 0.0 0.00 0.00 0.00 94 1010.2
20260508120016 37 0.0 0.0 0.00 0.00 0.00 94 1010.0
20260508115536 37 0.0 0.0 0.00 0.00 0.00 94 1009.9
20260508115016 36 0.0 0.0 0.00 0.00 0.00 93 1009.8
20260508114538 36 0.0 0.0 0.00 0.00 0.00 93 1009.8
20260508114037 35 0.0 0.0 0.00 0.00 0.00 93 1009.8
20260508113516 35 0.0 0.0 0.00 0.00 0.00 94 1009.7
20260508113017 34 0.0 0.0 0.00 0.00 0.00 93 1009.6
20260508112536 33 0.0 0.0 0.00 0.00 0.00 93 1009.6
20260508112016 33 0.0 0.0 0.00 0.00 0.00 93 1009.6
20260508111516 33 0.0 0.0 0.00 0.00 0.00 93 1009.6
20260508111016 33 0.0 0.0 0.00 0.00 0.00 92 1009.6
20260508110517 32 0.0 0.0 0.00 0.00 0.00 92 1009.4
20260508110017 32 0.0 0.0 0.00 0.00 0.00 92 1009.3
20260508105516 33 0.0 0.0 0.00 0.00 0.00 92 1009.4
20260508105036 33 0.0 0.0 0.00 0.00 0.00 92 1009.4
20260508104516 33 0.0 0.0 0.00 0.00 0.00 92 1009.4
20260508104017 33 0.0 0.0 0.00 0.00 0.00 92 1009.3
20260508103517 33 0.0 0.0 0.00 0.00 0.00 92 1009.4
20260508103016 33 0.0 0.0 0.00 0.00 0.00 92 1009.4
20260508102516 33 0.0 0.0 0.00 0.00 0.00 92 1009.3
20260508102017 33 0.0 0.9 0.00 0.00 0.00 91 1009.2
20260508101517 33 102 0.0 1.7 0.00 0.00 0.00 92 1009.3
20260508101016 33 102 0.9 1.7 0.00 0.00 0.00 92 1009.2
20260508100516 33 102 0.9 1.7 0.00 0.00 0.00 92 1009.3
20260508100017 33 102 0.0 0.9 0.00 0.00 0.00 92 1009.3
20260508095516 33 0.0 0.0 0.00 0.00 0.00 92 1009.3
20260508095016 34 0.0 0.0 0.00 0.00 0.00 92 1009.4
20260508094536 34 0.0 0.0 0.00 0.00 0.00 91 1009.4
20260508094016 34 0.0 0.9 0.00 0.00 0.00 91 1009.5